TimeAKST,TemperatureF,Dew PointF,Humidity,Sea Level PressureIn,VisibilityMPH,Wind Direction,Wind SpeedMPH,Gust SpeedMPH,PrecipitationIn,Events,Conditions,WindDirDegrees,DateUTC
12:53 AM,1.9,-2.0,83,29.93,10.0,NW,3.5,-,N/A,,Overcast,310,2013-01-31 09:53:00
1:34 AM,1.9,-0.0,91,29.75,3.0,Calm,Calm,-,N/A,,Overcast,0,2013-01-31 10:34:00
1:44 AM,1.9,1.0,96,29.75,2.0,Calm,Calm,-,N/A,,Overcast,0,2013-01-31 10:44:00
1:51 AM,1.4,1.4,100,29.75,1.5,Calm,Calm,-,N/A,,Overcast,0,2013-01-31 10:51:00
1:53 AM,1.9,1.0,96,29.93,1.5,Calm,Calm,-,N/A,,Overcast,0,2013-01-31 10:53:00
2:09 AM,3.0,1.9,95,29.75,0.8,Calm,Calm,-,N/A,,Mist,0,2013-01-31 11:09:00
2:40 AM,3.0,1.0,91,29.75,0.5,Calm,Calm,-,N/A,Fog,Light Freezing Fog,0,2013-01-31 11:40:00
3:17 AM,3.0,1.9,95,29.75,0.8,Calm,Calm,-,N/A,,Mist,0,2013-01-31 12:17:00
3:53 AM,3.0,1.9,95,29.93,0.5,Calm,Calm,-,N/A,Fog,Light Freezing Fog,0,2013-01-31 12:53:00
4:53 AM,3.0,-0.0,87,29.93,0.8,Calm,Calm,-,N/A,,Mist,0,2013-01-31 13:53:00
5:35 AM,3.0,1.0,91,29.75,0.8,Calm,Calm,-,N/A,,Mist,0,2013-01-31 14:35:00
5:53 AM,3.9,1.0,88,29.93,0.8,Calm,Calm,-,N/A,,Mist,0,2013-01-31 14:53:00
6:06 AM,3.9,1.0,88,29.75,5.0,Calm,Calm,-,N/A,,Overcast,0,2013-01-31 15:06:00
6:53 AM,3.9,1.0,88,29.93,9.0,Calm,Calm,-,0.00,,Overcast,0,2013-01-31 15:53:00
7:53 AM,5.0,1.0,84,29.93,5.0,Calm,Calm,-,0.01,Snow,Light Snow,0,2013-01-31 16:53:00
8:53 AM,6.1,3.0,87,29.94,5.0,Calm,Calm,-,0.00,Snow,Light Snow,0,2013-01-31 17:53:00
9:16 AM,7.0,3.0,84,29.77,5.0,Calm,Calm,-,0.00,Snow,Light Snow,0,2013-01-31 18:16:00
9:53 AM,7.0,3.0,84,29.94,5.0,Calm,Calm,-,0.00,Snow,Light Snow,0,2013-01-31 18:53:00
10:53 AM,7.0,3.9,87,29.96,1.0,Calm,Calm,-,0.01,Snow,Light Snow,0,2013-01-31 19:53:00
11:26 AM,8.1,5.0,87,29.80,3.0,Calm,Calm,-,0.01,Snow,Light Snow,0,2013-01-31 20:26:00
11:41 AM,8.1,5.0,87,29.81,1.5,Calm,Calm,-,0.01,Snow,Light Snow,0,2013-01-31 20:41:00
11:53 AM,8.1,5.0,87,29.98,1.0,Calm,Calm,-,0.02,Snow,Light Snow,0,2013-01-31 20:53:00
12:53 PM,10.0,7.0,87,29.99,2.0,Calm,Calm,-,0.01,Snow,Light Snow,0,2013-01-31 21:53:00
1:14 PM,10.9,7.0,84,29.83,7.0,Calm,Calm,-,0.00,Snow,Light Snow,0,2013-01-31 22:14:00
1:53 PM,12.0,9.0,88,30.00,10.0,Calm,Calm,-,0.00,,Overcast,0,2013-01-31 22:53:00
2:53 PM,12.9,9.0,84,30.01,10.0,Calm,Calm,-,0.00,Snow,Light Snow,0,2013-01-31 23:53:00
3:53 PM,12.9,10.0,88,30.02,10.0,Calm,Calm,-,0.00,,Overcast,0,2013-02-01 00:53:00
4:53 PM,12.9,10.0,88,30.03,10.0,Calm,Calm,-,0.00,,Mostly Cloudy,0,2013-02-01 01:53:00
5:53 PM,15.1,10.9,84,30.03,10.0,Calm,Calm,-,N/A,,Mostly Cloudy,0,2013-02-01 02:53:00
6:53 PM,14.0,10.9,88,30.04,10.0,Calm,Calm,-,N/A,,Overcast,0,2013-02-01 03:53:00
7:53 PM,14.0,10.9,88,30.05,10.0,Calm,Calm,-,N/A,,Overcast,0,2013-02-01 04:53:00
8:53 PM,12.9,10.0,88,30.07,10.0,Calm,Calm,-,N/A,,Mostly Cloudy,0,2013-02-01 05:53:00
9:27 PM,12.0,9.0,88,29.92,10.0,Calm,Calm,-,N/A,,Mostly Cloudy,0,2013-02-01 06:27:00
9:36 PM,12.9,10.0,88,29.92,10.0,Calm,Calm,-,N/A,,Overcast,0,2013-02-01 06:36:00
9:53 PM,12.0,9.0,88,30.07,10.0,Calm,Calm,-,N/A,,Overcast,0,2013-02-01 06:53:00
10:36 PM,12.9,10.0,88,29.93,10.0,Calm,Calm,-,N/A,,Overcast,0,2013-02-01 07:36:00
10:53 PM,12.9,10.0,88,30.08,10.0,Calm,Calm,-,N/A,,Overcast,0,2013-02-01 07:53:00
11:53 PM,12.9,10.9,92,30.09,10.0,Calm,Calm,-,N/A,,Overcast,0,2013-02-01 08:53:00